| time (UTC) | temp C | wind direction | speed KPH | gust KPH | rain 1hr cm | rain 24hr cm | rain mn cm | humidity % | barometer mb |
| 20260506025239 | 18 | 0 | 8.0 | 22.5 | 0.00 | 0.00 | 0.00 | 77 | 1008.2 |
| 20260506024738 | 18 | 333 | 9.7 | 20.9 | 0.00 | 0.00 | 0.00 | 77 | 1008.3 |
| 20260506024234 | 19 | 329 | 9.7 | 22.5 | 0.00 | 0.00 | 0.00 | 77 | 1008.1 |
| 20260506023737 | 19 | 11 | 9.7 | 22.5 | 0.00 | 0.00 | 0.00 | 77 | 1008.0 |
| 20260506023233 | 20 | 306 | 9.7 | 20.9 | 0.00 | 0.00 | 0.00 | 76 | 1007.7 |
| 20260506022732 | 20 | 340 | 8.0 | 19.3 | 0.00 | 0.00 | 0.00 | 76 | 1007.3 |
| 20260506022232 | 20 | 331 | 8.0 | 19.3 | 0.00 | 0.00 | 0.00 | 76 | 1007.1 |
| 20260506021733 | 20 | 355 | 8.0 | 19.3 | 0.00 | 0.00 | 0.00 | 76 | 1007.1 |
| 20260506021232 | 20 | 17 | 8.0 | 20.9 | 0.00 | 0.00 | 0.00 | 75 | 1007.1 |
| 20260506020733 | 20 | 323 | 8.0 | 20.9 | 0.00 | 0.00 | 0.00 | 75 | 1007.0 |
| 20260506020618 | 20 | 0 | 8.0 | 17.7 | 0.00 | 0.00 | 0.00 | 75 | 1006.9 |
| 20260506020614 | 20 | 341 | 8.0 | 17.7 | 0.00 | 0.00 | 0.00 | 75 | 1006.9 |
| 20260506015233 | 20 | 5 | 9.7 | 17.7 | 0.00 | 0.00 | 0.00 | 74 | 1006.7 |
| 20260506014732 | 21 | 16 | 9.7 | 17.7 | 0.00 | 0.00 | 0.00 | 73 | 1006.7 |
| 20260506014231 | 21 | 15 | 9.7 | 22.5 | 0.00 | 0.00 | 0.00 | 73 | 1006.8 |
| 20260506013730 | 21 | 288 | 8.0 | 22.5 | 0.00 | 0.00 | 0.00 | 72 | 1006.3 |
| 20260506013232 | 22 | 5 | 6.4 | 22.5 | 0.00 | 0.00 | 0.00 | 73 | 1006.3 |
| 20260506012729 | 22 | 303 | 4.8 | 17.7 | 0.00 | 0.00 | 0.00 | 72 | 1006.3 |
| 20260506012227 | 22 | 325 | 4.8 | 14.5 | 0.00 | 0.00 | 0.00 | 72 | 1006.1 |
| 20260506011728 | 22 | 310 | 4.8 | 12.9 | 0.00 | 0.00 | 0.00 | 72 | 1006.2 |
| 20260506011225 | 22 | 349 | 4.8 | 12.9 | 0.00 | 0.00 | 0.00 | 71 | 1006.0 |
| 20260506010725 | 22 | 355 | 4.8 | 12.9 | 0.00 | 0.00 | 0.00 | 71 | 1005.8 |
| 20260506010222 | 22 | 315 | 4.8 | 14.5 | 0.00 | 0.00 | 0.00 | 71 | 1006.1 |
| 20260506005723 | 22 | 5 | 4.8 | 14.5 | 0.00 | 0.00 | 0.00 | 70 | 1006.3 |
| 20260506005223 | 22 | 333 | 6.4 | 14.5 | 0.00 | 0.00 | 0.00 | 70 | 1006.0 |
| 20260506004721 | 22 | 24 | 6.4 | 14.5 | 0.00 | 0.00 | 0.00 | 69 | 1005.5 |
| 20260506004517 | 22 | 5 | 6.4 | 14.5 | 0.00 | 0.00 | 0.00 | 69 | 1005.5 |
| 20260506003720 | 22 | 304 | 6.4 | 16.1 | 0.00 | 0.00 | 0.00 | 69 | 1005.8 |
| 20260506003221 | 23 | 355 | 8.0 | 19.3 | 0.00 | 0.00 | 0.00 | 69 | 1005.6 |
| 20260506002721 | 23 | 329 | 6.4 | 19.3 | 0.00 | 0.00 | 0.00 | 68 | 1005.5 |
| 20260506002214 | 23 | 301 | 6.4 | 16.1 | 0.00 | 0.00 | 0.00 | 68 | 1005.1 |
| 20260506001708 | 23 | 289 | 6.4 | 17.7 | 0.00 | 0.00 | 0.00 | 67 | 1005.2 |
| 20260506001203 | 23 | 310 | 8.0 | 17.7 | 0.00 | 0.00 | 0.00 | 67 | 1005.2 |
| 20260506000956 | 23 | 304 | 8.0 | 20.9 | 0.00 | 0.00 | 0.00 | 67 | 1005.0 |
| 20260506000205 | 24 | 5 | 8.0 | 20.9 | 0.00 | 0.00 | 0.00 | 66 | 1005.0 |
| 20260505235703 | 24 | 338 | 9.7 | 22.5 | 0.00 | 0.00 | 0.00 | 65 | 1005.2 |
| 20260505235204 | 25 | 273 | 11.3 | 22.5 | 0.00 | 0.00 | 0.00 | 65 | 1005.0 |
| 20260505234703 | 25 | 355 | 9.7 | 20.9 | 0.00 | 0.00 | 0.00 | 64 | 1005.1 |
| 20260505234204 | 25 | 15 | 8.0 | 20.9 | 0.00 | 0.00 | 0.00 | 64 | 1004.8 |
| 20260505233702 | 26 | 325 | 8.0 | 17.7 | 0.00 | 0.00 | 0.00 | 63 | 1004.8 |
| 20260505233202 | 26 | 275 | 8.0 | 17.7 | 0.00 | 0.00 | 0.00 | 63 | 1004.7 |
| 20260505232703 | 26 | 250 | 9.7 | 22.5 | 0.00 | 0.00 | 0.00 | 62 | 1004.7 |
| 20260505232203 | 26 | 344 | 9.7 | 22.5 | 0.00 | 0.00 | 0.00 | 61 | 1004.7 |
| 20260505231704 | 26 | 317 | 9.7 | 22.5 | 0.00 | 0.00 | 0.00 | 60 | 1004.8 |
| 20260505231202 | 27 | 329 | 9.7 | 22.5 | 0.00 | 0.00 | 0.00 | 60 | 1004.5 |
| 20260505230703 | 27 | 25 | 9.7 | 22.5 | 0.00 | 0.00 | 0.00 | 59 | 1004.5 |
| 20260505230204 | 28 | 349 | 9.7 | 20.9 | 0.00 | 0.00 | 0.00 | 58 | 1004.3 |
| 20260505225703 | 28 | 0 | 8.0 | 17.7 | 0.00 | 0.00 | 0.00 | 57 | 1004.2 |
| 20260505225449 | 29 | 312 | 8.0 | 17.7 | 0.00 | 0.00 | 0.00 | 54 | 1003.9 |
| 20260505224803 | 30 | 26 | 4.8 | 12.9 | 0.00 | 0.00 | 0.00 | 49 | 1004.1 |
| 20260505224745 | 30 | 348 | 4.8 | 17.7 | 0.00 | 0.00 | 0.00 | 52 | 1003.9 |
| 20260505223957 | 30 | 296 | 6.4 | 17.7 | 0.00 | 0.00 | 0.00 | 48 | 1004.1 |
| 20260505223251 | 31 | 329 | 6.4 | 17.7 | 0.00 | 0.00 | 0.00 | 45 | 1003.7 |
| 20260505223235 | 31 | 338 | 6.4 | 17.7 | 0.00 | 0.00 | 0.00 | 46 | 1004.0 |
| 20260505222202 | 32 | 305 | 6.4 | 17.7 | 0.00 | 0.00 | 0.00 | 45 | 1003.5 |
| 20260505221703 | 31 | 260 | 6.4 | 17.7 | 0.00 | 0.00 | 0.00 | 46 | 1003.5 |
| 20260505221156 | 31 | 337 | 6.4 | 17.7 | 0.00 | 0.00 | 0.00 | 46 | 1003.5 |
| 20260505220655 | 31 | 5 | 6.4 | 16.1 | 0.00 | 0.00 | 0.00 | 45 | 1003.5 |
| 20260505220153 | 32 | 286 | 6.4 | 16.1 | 0.00 | 0.00 | 0.00 | 44 | 1003.3 |
| 20260505215654 | 33 | 10 | 4.8 | 16.1 | 0.00 | 0.00 | 0.00 | 45 | 1003.3 |
| 20260505215455 | 33 | 326 | 3.2 | 9.7 | 0.00 | 0.00 | 0.00 | 49 | 1003.4 |
| 20260505215006 | 33 | 254 | 4.8 | 14.5 | 0.00 | 0.00 | 0.00 | 48 | 1003.4 |
| 20260505214448 | 33 | 309 | 6.4 | 14.5 | 0.00 | 0.00 | 0.00 | 48 | 1003.4 |
| 20260505213654 | 33 | 169 | 6.4 | 14.5 | 0.00 | 0.00 | 0.00 | 48 | 1003.4 |
| 20260505213150 | 33 | 238 | 4.8 | 12.9 | 0.00 | 0.00 | 0.00 | 50 | 1003.4 |
| 20260505212947 | 33 | 190 | 4.8 | 16.1 | 0.00 | 0.00 | 0.00 | 50 | 1003.5 |
| 20260505212150 | 33 | 286 | 6.4 | 17.7 | 0.00 | 0.00 | 0.00 | 51 | 1003.6 |
| 20260505211650 | 33 | 130 | 6.4 | 17.7 | 0.00 | 0.00 | 0.00 | 50 | 1003.7 |
| 20260505211443 | 33 | 211 | 4.8 | 12.9 | 0.00 | 0.00 | 0.00 | 51 | 1003.8 |
| 20260505210650 | 33 | 199 | 4.8 | 12.9 | 0.00 | 0.00 | 0.00 | 51 | 1003.7 |
| 20260505210148 | 33 | 333 | 3.2 | 12.9 | 0.00 | 0.00 | 0.00 | 51 | 1003.8 |
| 20260505205650 | 32 | 317 | 3.2 | 12.9 | 0.00 | 0.00 | 0.00 | 52 | 1003.8 |
| 20260505205437 | 32 | 323 | 3.2 | 12.9 | 0.00 | 0.00 | 0.00 | 52 | 1003.8 |
| 20260505204659 | 32 | 176 | 4.8 | 12.9 | 0.00 | 0.00 | 0.00 | 54 | 1003.9 |
| 20260505204146 | 32 | 342 | 4.8 | 12.9 | 0.00 | 0.00 | 0.00 | 54 | 1004.0 |
| 20260505203943 | 32 | 303 | 4.8 | 12.9 | 0.00 | 0.00 | 0.00 | 54 | 1004.1 |
| 20260505203143 | 31 | 210 | 4.8 | 16.1 | 0.00 | 0.00 | 0.00 | 56 | 1004.0 |
| 20260505202642 | 32 | 231 | 3.2 | 16.1 | 0.00 | 0.00 | 0.00 | 54 | 1004.3 |
| 20260505202138 | 32 | 89 | 4.8 | 12.9 | 0.00 | 0.00 | 0.00 | 54 | 1004.4 |
| 20260505201646 | 32 | 269 | 4.8 | 12.9 | 0.00 | 0.00 | 0.00 | 55 | 1004.3 |
| 20260505201138 | 31 | 188 | 4.8 | 17.7 | 0.00 | 0.00 | 0.00 | 56 | 1004.3 |
| 20260505200638 | 31 | 256 | 6.4 | 17.7 | 0.00 | 0.00 | 0.00 | 55 | 1004.3 |
| 20260505200138 | 31 | 205 | 8.0 | 16.1 | 0.00 | 0.00 | 0.00 | 57 | 1004.3 |
| 20260505195935 | 31 | 180 | 8.0 | 19.3 | 0.00 | 0.00 | 0.00 | 56 | 1004.3 |
| 20260505195138 | 31 | 139 | 8.0 | 19.3 | 0.00 | 0.00 | 0.00 | 56 | 1004.5 |
| 20260505194638 | 31 | 203 | 8.0 | 19.3 | 0.00 | 0.00 | 0.00 | 58 | 1004.3 |
| 20260505194139 | 31 | 219 | 9.7 | 24.1 | 0.00 | 0.00 | 0.00 | 59 | 1004.3 |
| 20260505193634 | 31 | 141 | 8.0 | 24.1 | 0.00 | 0.00 | 0.00 | 59 | 1004.5 |
| 20260505193134 | 31 | 230 | 8.0 | 22.5 | 0.00 | 0.00 | 0.00 | 59 | 1004.5 |
| 20260505192634 | 31 | 132 | 8.0 | 17.7 | 0.00 | 0.00 | 0.00 | 58 | 1004.4 |
| 20260505192134 | 31 | 159 | 8.0 | 17.7 | 0.00 | 0.00 | 0.00 | 59 | 1004.4 |
| 20260505191635 | 30 | 167 | 8.0 | 16.1 | 0.00 | 0.00 | 0.00 | 60 | 1004.4 |
| 20260505191134 | 30 | 186 | 8.0 | 20.9 | 0.00 | 0.00 | 0.00 | 61 | 1004.4 |
| 20260505190635 | 30 | 221 | 8.0 | 20.9 | 0.00 | 0.00 | 0.00 | 60 | 1004.4 |
| 20260505190135 | 30 | 184 | 8.0 | 20.9 | 0.00 | 0.00 | 0.00 | 61 | 1004.3 |
| 20260505185634 | 30 | 149 | 9.7 | 20.9 | 0.00 | 0.00 | 0.00 | 61 | 1004.4 |
| 20260505185136 | 30 | 199 | 8.0 | 20.9 | 0.00 | 0.00 | 0.00 | 61 | 1004.4 |
| 20260505184635 | 30 | 168 | 6.4 | 19.3 | 0.00 | 0.00 | 0.00 | 61 | 1004.4 |
| 20260505184135 | 30 | 193 | 6.4 | 17.7 | 0.00 | 0.00 | 0.00 | 61 | 1004.4 |
| 20260505183635 | 30 | 215 | 6.4 | 16.1 | 0.00 | 0.00 | 0.00 | 62 | 1004.4 |
| 20260505183137 | 30 | 282 | 6.4 | 19.3 | 0.00 | 0.00 | 0.00 | 61 | 1004.4 |
| 20260505182634 | 30 | 186 | 8.0 | 19.3 | 0.00 | 0.00 | 0.00 | 62 | 1004.3 |
| 20260505182134 | 30 | 195 | 8.0 | 19.3 | 0.00 | 0.00 | 0.00 | 61 | 1004.4 |
| 20260505181631 | 30 | 140 | 8.0 | 20.9 | 0.00 | 0.00 | 0.00 | 61 | 1004.4 |
| 20260505181130 | 30 | 153 | 9.7 | 20.9 | 0.00 | 0.00 | 0.00 | 62 | 1004.4 |
| 20260505180631 | 30 | 206 | 9.7 | 20.9 | 0.00 | 0.00 | 0.00 | 62 | 1004.5 |
| 20260505180420 | 30 | 155 | 8.0 | 19.3 | 0.00 | 0.00 | 0.00 | 63 | 1004.4 |
| 20260505175631 | 29 | 130 | 8.0 | 19.3 | 0.00 | 0.00 | 0.00 | 66 | 1004.4 |
| 20260505175128 | 29 | 161 | 8.0 | 19.3 | 0.00 | 0.00 | 0.00 | 65 | 1004.4 |
| 20260505174627 | 29 | 265 | 8.0 | 17.7 | 0.00 | 0.00 | 0.00 | 66 | 1004.3 |
| 20260505174128 | 28 | 180 | 9.7 | 19.3 | 0.00 | 0.00 | 0.00 | 67 | 1004.3 |
| 20260505173922 | 28 | 136 | 9.7 | 25.7 | 0.00 | 0.00 | 0.00 | 66 | 1004.4 |
| 20260505173425 | 28 | 159 | 9.7 | 25.7 | 0.00 | 0.00 | 0.00 | 66 | 1004.3 |
| 20260505172627 | 28 | 219 | 9.7 | 20.9 | 0.00 | 0.00 | 0.00 | 66 | 1004.4 |
| 20260505172127 | 28 | 165 | 8.0 | 19.3 | 0.00 | 0.00 | 0.00 | 69 | 1004.4 |
| 20260505171628 | 28 | 213 | 9.7 | 24.1 | 0.00 | 0.00 | 0.00 | 68 | 1004.4 |
| 20260505171128 | 27 | 144 | 9.7 | 25.7 | 0.00 | 0.00 | 0.00 | 69 | 1004.4 |
| 20260505170627 | 27 | 164 | 9.7 | 25.7 | 0.00 | 0.00 | 0.00 | 69 | 1004.4 |
| 20260505170424 | 27 | 272 | 8.0 | 22.5 | 0.00 | 0.00 | 0.00 | 69 | 1004.7 |
| 20260505165628 | 27 | 218 | 8.0 | 22.5 | 0.00 | 0.00 | 0.00 | 70 | 1004.7 |
| 20260505165419 | 27 | 158 | 8.0 | 35.4 | 0.00 | 0.00 | 0.00 | 70 | 1004.4 |
| 20260505164628 | 27 | 202 | 8.0 | 35.4 | 0.00 | 0.00 | 0.00 | 71 | 1004.7 |
| 20260505164422 | 27 | 163 | 9.7 | 19.3 | 0.00 | 0.00 | 0.00 | 72 | 1004.5 |
| 20260505163626 | 26 | 212 | 11.3 | 27.4 | 0.00 | 0.00 | 0.00 | 73 | 1004.4 |
| 20260505163126 | 26 | 150 | 11.3 | 27.4 | 0.00 | 0.00 | 0.00 | 72 | 1004.4 |
| 20260505162626 | 26 | 327 | 11.3 | 25.7 | 0.00 | 0.00 | 0.00 | 73 | 1004.7 |
| 20260505162126 | 26 | 147 | 11.3 | 25.7 | 0.00 | 0.00 | 0.00 | 73 | 1004.5 |
| 20260505161925 | 26 | 175 | 11.3 | 25.7 | 0.00 | 0.00 | 0.00 | 73 | 1004.5 |
| 20260505161126 | 26 | 203 | 9.7 | 25.7 | 0.00 | 0.00 | 0.00 | 73 | 1004.2 |
| 20260505161008 | 26 | 182 | 11.3 | 29.0 | 0.00 | 0.00 | 0.00 | 74 | 1004.3 |
| 20260505161003 | 26 | 158 | 9.7 | 29.0 | 0.00 | 0.00 | 0.00 | 74 | 1004.3 |
| 20260505153120 | 25 | 163 | 11.3 | 29.0 | 0.00 | 0.00 | 0.00 | 75 | 1004.0 |
| 20260505152620 | 25 | 191 | 11.3 | 27.4 | 0.00 | 0.00 | 0.00 | 76 | 1004.1 |
| 20260505152118 | 25 | 188 | 12.9 | 27.4 | 0.00 | 0.00 | 0.00 | 77 | 1004.0 |
| 20260505151631 | 25 | 209 | 11.3 | 27.4 | 0.00 | 0.00 | 0.00 | 79 | 1004.2 |
| 20260505151118 | 24 | 126 | 9.7 | 27.4 | 0.00 | 0.00 | 0.00 | 79 | 1004.1 |
| 20260505150618 | 24 | 209 | 9.7 | 27.4 | 0.00 | 0.00 | 0.00 | 80 | 1004.4 |
| 20260505150121 | 24 | 225 | 9.7 | 27.4 | 0.00 | 0.00 | 0.00 | 80 | 1004.4 |
| 20260505140614 | 22 | 169 | 8.0 | 20.9 | 0.00 | 0.00 | 0.00 | 85 | 1004.2 |
| 20260505140114 | 22 | 276 | 8.0 | 24.1 | 0.00 | 0.00 | 0.00 | 85 | 1004.2 |
| 20260505130114 | 21 | 136 | 9.7 | 27.4 | 0.00 | 0.00 | 0.00 | 88 | 1004.3 |
| 20260505124614 | 21 | 253 | 9.7 | 29.0 | 0.00 | 0.00 | 0.00 | 88 | 1004.0 |
| 20260505124113 | 21 | 194 | 9.7 | 24.1 | 0.00 | 0.00 | 0.00 | 88 | 1003.8 |
| 20260505123612 | 21 | 185 | 9.7 | 17.7 | 0.00 | 0.00 | 0.00 | 88 | 1003.7 |
| 20260505123112 | 21 | 195 | 8.0 | 20.9 | 0.00 | 0.00 | 0.00 | 88 | 1003.6 |
| 20260505122609 | 21 | 212 | 9.7 | 24.1 | 0.00 | 0.00 | 0.00 | 88 | 1003.5 |
| 20260505122108 | 21 | 223 | 9.7 | 24.1 | 0.00 | 0.00 | 0.00 | 88 | 1003.5 |
| 20260505121607 | 21 | 214 | 9.7 | 25.7 | 0.00 | 0.00 | 0.00 | 88 | 1003.4 |
| 20260505121109 | 21 | 202 | 11.3 | 25.7 | 0.00 | 0.00 | 0.00 | 87 | 1003.4 |
| 20260505120606 | 21 | 182 | 11.3 | 24.1 | 0.00 | 0.00 | 0.00 | 87 | 1003.4 |
| 20260505120205 | 21 | 185 | 9.7 | 20.9 | 0.00 | 0.00 | 0.00 | 87 | 1003.4 |
| 20260505120148 | 21 | 202 | 9.7 | 24.1 | 0.00 | 0.00 | 0.00 | 87 | 1003.3 |
| 20260505115154 | 21 | 190 | 8.0 | 24.1 | 0.00 | 0.00 | 0.00 | 87 | 1003.2 |
| 20260505115138 | 21 | 151 | 9.7 | 24.1 | 0.00 | 0.00 | 0.00 | 87 | 1003.3 |
| 20260505114101 | 21 | 204 | 9.7 | 20.9 | 0.00 | 0.00 | 0.00 | 87 | 1003.3 |
| 20260505113600 | 21 | 232 | 9.7 | 20.9 | 0.00 | 0.00 | 0.00 | 87 | 1003.4 |
| 20260505113100 | 21 | 150 | 8.0 | 20.9 | 0.00 | 0.00 | 0.00 | 87 | 1003.3 |
| 20260505112559 | 21 | 157 | 9.7 | 24.1 | 0.00 | 0.00 | 0.00 | 87 | 1003.4 |
| 20260505112101 | 21 | 212 | 9.7 | 24.1 | 0.00 | 0.00 | 0.00 | 87 | 1003.2 |
| 20260505111652 | 21 | 213 | 9.7 | 19.3 | 0.00 | 0.00 | 0.00 | 87 | 1003.3 |
| 20260505111636 | 21 | 130 | 9.7 | 20.9 | 0.00 | 0.00 | 0.00 | 87 | 1003.3 |
| 20260505110557 | 21 | 194 | 9.7 | 20.9 | 0.00 | 0.00 | 0.00 | 87 | 1003.2 |
| 20260505102057 | 21 | 200 | 9.7 | 22.5 | 0.00 | 0.00 | 0.00 | 86 | 1003.2 |
| 20260505101552 | 21 | 148 | 9.7 | 30.6 | 0.00 | 0.00 | 0.00 | 86 | 1003.2 |
| 20260505101335 | 21 | 227 | 11.3 | 30.6 | 0.00 | 0.00 | 0.00 | 86 | 1003.4 |
| 20260505101113 | 21 | 227 | 11.3 | 30.6 | 0.00 | 0.00 | 0.00 | 86 | 1003.4 |
| 20260505100552 | 21 | 196 | 9.7 | 25.7 | 0.00 | 0.00 | 0.00 | 86 | 1003.3 |
| 20260505100052 | 21 | 144 | 8.0 | 25.7 | 0.00 | 0.00 | 0.00 | 86 | 1003.3 |
| 20260505095552 | 21 | 159 | 9.7 | 22.5 | 0.00 | 0.00 | 0.00 | 86 | 1003.4 |
| 20260505095052 | 21 | 144 | 11.3 | 22.5 | 0.00 | 0.00 | 0.00 | 86 | 1003.4 |
| 20260505094552 | 21 | 161 | 12.9 | 25.7 | 0.00 | 0.00 | 0.00 | 86 | 1003.3 |
| 20260505094055 | 21 | 161 | 11.3 | 25.7 | 0.00 | 0.00 | 0.00 | 86 | 1003.4 |
| 20260505093552 | 21 | 170 | 9.7 | 25.7 | 0.00 | 0.00 | 0.00 | 86 | 1003.4 |
| 20260505093052 | 21 | 196 | 9.7 | 27.4 | 0.00 | 0.00 | 0.00 | 86 | 1003.5 |
| 20260505092552 | 21 | 238 | 11.3 | 27.4 | 0.00 | 0.00 | 0.00 | 86 | 1003.5 |
| 20260505092053 | 21 | 190 | 11.3 | 25.7 | 0.00 | 0.00 | 0.00 | 86 | 1003.6 |
| 20260505091551 | 21 | 167 | 11.3 | 25.7 | 0.00 | 0.00 | 0.00 | 86 | 1003.7 |
| 20260505091052 | 21 | 149 | 9.7 | 25.7 | 0.00 | 0.00 | 0.00 | 85 | 1003.7 |
| 20260505090545 | 21 | 199 | 9.7 | 20.9 | 0.00 | 0.00 | 0.00 | 85 | 1003.7 |
| 20260505090044 | 21 | 165 | 9.7 | 20.9 | 0.00 | 0.00 | 0.00 | 85 | 1003.7 |
| 20260505085541 | 21 | 141 | 8.0 | 19.3 | 0.00 | 0.00 | 0.00 | 85 | 1003.7 |
| 20260505085037 | 22 | 178 | 11.3 | 25.7 | 0.00 | 0.00 | 0.00 | 85 | 1003.7 |
| 20260505084538 | 22 | 222 | 12.9 | 33.8 | 0.00 | 0.00 | 0.00 | 85 | 1003.7 |
| 20260505084037 | 22 | 190 | 11.3 | 33.8 | 0.00 | 0.00 | 0.00 | 85 | 1003.8 |
| 20260505083538 | 22 | 219 | 9.7 | 24.1 | 0.00 | 0.00 | 0.00 | 84 | 1003.7 |
| 20260505083037 | 22 | 219 | 11.3 | 24.1 | 0.00 | 0.00 | 0.00 | 84 | 1003.6 |
| 20260505082829 | 22 | 155 | 9.7 | 22.5 | 0.00 | 0.00 | 0.00 | 84 | 1003.7 |
| 20260505082037 | 22 | 159 | 9.7 | 20.9 | 0.00 | 0.00 | 0.00 | 84 | 1003.8 |
| 20260505081539 | 22 | 182 | 9.7 | 19.3 | 0.00 | 0.00 | 0.00 | 83 | 1003.7 |
| 20260505081332 | 22 | 178 | 9.7 | 30.6 | 0.00 | 0.00 | 0.00 | 83 | 1003.7 |
| 20260505080538 | 22 | 145 | 11.3 | 30.6 | 0.00 | 0.00 | 0.00 | 83 | 1003.7 |
| 20260505080035 | 22 | 180 | 11.3 | 35.4 | 0.00 | 0.00 | 0.00 | 83 | 1003.8 |
| 20260505075535 | 22 | 198 | 11.3 | 35.4 | 0.00 | 0.00 | 0.00 | 83 | 1003.8 |
| 20260505075031 | 22 | 193 | 11.3 | 29.0 | 0.00 | 0.00 | 0.00 | 82 | 1003.9 |
| 20260505074524 | 22 | 122 | 11.3 | 32.2 | 0.00 | 0.00 | 0.00 | 82 | 1003.9 |
| 20260505074318 | 22 | 150 | 11.3 | 32.2 | 0.00 | 0.00 | 0.00 | 81 | 1004.1 |
| 20260505073837 | 22 | 190 | 9.7 | 27.4 | 0.00 | 0.00 | 0.00 | 81 | 1004.1 |
| 20260505073021 | 22 | 156 | 9.7 | 27.4 | 0.00 | 0.00 | 0.00 | 81 | 1004.4 |
| 20260505072820 | 22 | 184 | 9.7 | 24.1 | 0.00 | 0.00 | 0.00 | 80 | 1004.3 |
| 20260505072022 | 22 | 155 | 9.7 | 29.0 | 0.00 | 0.00 | 0.00 | 80 | 1004.4 |
| 20260505071521 | 22 | 181 | 9.7 | 29.0 | 0.00 | 0.00 | 0.00 | 79 | 1004.5 |
| 20260505071021 | 22 | 205 | 11.3 | 20.9 | 0.00 | 0.00 | 0.00 | 79 | 1004.5 |
| 20260505070531 | 22 | 188 | 9.7 | 27.4 | 0.00 | 0.00 | 0.00 | 79 | 1004.7 |
| 20260505070024 | 22 | 135 | 9.7 | 27.4 | 0.00 | 0.00 | 0.00 | 78 | 1004.9 |
| 20260505065521 | 23 | 121 | 11.3 | 25.7 | 0.00 | 0.00 | 0.00 | 78 | 1005.0 |
| 20260505065119 | 23 | 157 | 9.7 | 29.0 | 0.00 | 0.00 | 0.00 | 77 | 1005.0 |
| 20260505065100 | 23 | 153 | 11.3 | 29.0 | 0.00 | 0.00 | 0.00 | 78 | 1004.9 |
| 20260505064322 | 23 | 136 | 8.0 | 24.1 | 0.00 | 0.00 | 0.00 | 77 | 1005.0 |
| 20260505063516 | 23 | 227 | 9.7 | 22.5 | 0.00 | 0.00 | 0.00 | 77 | 1005.1 |
| 20260505063016 | 23 | 168 | 9.7 | 22.5 | 0.00 | 0.00 | 0.00 | 77 | 1005.1 |
| 20260505062515 | 23 | 197 | 9.7 | 24.1 | 0.00 | 0.00 | 0.00 | 77 | 1005.1 |
| 20260505062013 | 23 | 186 | 8.0 | 24.1 | 0.00 | 0.00 | 0.00 | 77 | 1005.1 |
| 20260505061513 | 23 | 142 | 8.0 | 24.1 | 0.00 | 0.00 | 0.00 | 76 | 1005.1 |
| 20260505061013 | 23 | 138 | 8.0 | 24.1 | 0.00 | 0.00 | 0.00 | 76 | 1005.2 |
| 20260505060513 | 23 | 148 | 9.7 | 24.1 | 0.00 | 0.00 | 0.00 | 76 | 1005.2 |
| 20260505060013 | 23 | 161 | 9.7 | 24.1 | 0.00 | 0.00 | 0.00 | 75 | 1005.1 |
| 20260505055515 | 23 | 192 | 8.0 | 24.1 | 0.00 | 0.00 | 0.00 | 75 | 1005.0 |
| 20260505055325 | 23 | 211 | 9.7 | 25.7 | 0.00 | 0.00 | 0.00 | 75 | 1005.0 |
| 20260505054602 | 23 | 196 | 8.0 | 17.7 | 0.00 | 0.00 | 0.00 | 74 | 1005.2 |
| 20260505054548 | 23 | 198 | 8.0 | 25.7 | 0.00 | 0.00 | 0.00 | 75 | 1005.2 |
| 20260505053509 | 23 | 173 | 9.7 | 22.5 | 0.00 | 0.00 | 0.00 | 74 | 1005.1 |
| 20260505053011 | 23 | 178 | 8.0 | 22.5 | 0.00 | 0.00 | 0.00 | 74 | 1005.2 |
| 20260505052504 | 23 | 137 | 9.7 | 24.1 | 0.00 | 0.00 | 0.00 | 74 | 1005.3 |
| 20260505052008 | 23 | 154 | 9.7 | 24.1 | 0.00 | 0.00 | 0.00 | 74 | 1005.4 |
| 20260505051504 | 23 | 188 | 9.7 | 22.5 | 0.00 | 0.00 | 0.00 | 74 | 1005.4 |
| 20260505051004 | 23 | 140 | 9.7 | 20.9 | 0.00 | 0.00 | 0.00 | 74 | 1005.6 |
| 20260505050803 | 23 | 170 | 9.7 | 25.7 | 0.00 | 0.00 | 0.00 | 73 | 1005.5 |
| 20260505050321 | 23 | 162 | 11.3 | 27.4 | 0.00 | 0.00 | 0.00 | 73 | 1005.5 |
| 20260505041448 | 23 | 121 | 9.7 | 27.4 | 0.00 | 0.00 | 0.00 | 72 | 1005.5 |
| 20260505041240 | 23 | 160 | 9.7 | 27.4 | 0.00 | 0.00 | 0.00 | 72 | 1005.7 |
| 20260505040434 | 23 | 180 | 11.3 | 27.4 | 0.00 | 0.00 | 0.00 | 71 | 1005.6 |
| 20260505035934 | 23 | 150 | 11.3 | 25.7 | 0.00 | 0.00 | 0.00 | 71 | 1005.7 |
| 20260505035435 | 23 | 118 | 9.7 | 25.7 | 0.00 | 0.00 | 0.00 | 71 | 1005.6 |
| 20260505034935 | 23 | 188 | 11.3 | 24.1 | 0.00 | 0.00 | 0.00 | 71 | 1005.7 |
| 20260505034430 | 23 | 159 | 9.7 | 20.9 | 0.00 | 0.00 | 0.00 | 71 | 1005.6 |
| 20260505033930 | 23 | 126 | 9.7 | 24.1 | 0.00 | 0.00 | 0.00 | 71 | 1005.6 |
| 20260505033429 | 23 | 193 | 11.3 | 24.1 | 0.00 | 0.00 | 0.00 | 71 | 1005.7 |
| 20260505032929 | 23 | 205 | 9.7 | 20.9 | 0.00 | 0.00 | 0.00 | 71 | 1005.7 |
| 20260505032428 | 23 | 169 | 9.7 | 19.3 | 0.00 | 0.00 | 0.00 | 71 | 1005.7 |
| 20260505031928 | 23 | 225 | 9.7 | 24.1 | 0.00 | 0.00 | 0.00 | 70 | 1005.9 |
| 20260505031429 | 23 | 179 | 8.0 | 24.1 | 0.00 | 0.00 | 0.00 | 70 | 1005.7 |
| 20260505030937 | 23 | 182 | 9.7 | 22.5 | 0.00 | 0.00 | 0.00 | 70 | 1005.7 |
| 20260505030428 | 23 | 154 | 9.7 | 29.0 | 0.00 | 0.00 | 0.00 | 70 | 1005.7 |
| 20260505025929 | 24 | 176 | 9.7 | 29.0 | 0.00 | 0.00 | 0.00 | 70 | 1005.8 |